TimePST,TemperatureF,Dew PointF,Humidity,Sea Level PressureIn,VisibilityMPH,Wind Direction,Wind SpeedMPH,Gust SpeedMPH,PrecipitationIn,Events,Conditions,WindDirDegrees,DateUTC
12:53 AM,46.9,42.1,83,30.02,10.0,SSW,6.9,-,0.01,,Overcast,210,2012-12-05 08:53:00
1:53 AM,44.1,39.9,85,30.05,10.0,SSW,8.1,-,N/A,,Partly Cloudy,210,2012-12-05 09:53:00
2:53 AM,41.0,37.9,89,30.09,10.0,SSW,5.8,-,N/A,,Clear,210,2012-12-05 10:53:00
3:53 AM,41.0,37.9,89,30.12,10.0,NW,9.2,-,N/A,,Scattered Clouds,310,2012-12-05 11:53:00
4:53 AM,39.9,37.9,93,30.14,10.0,Calm,Calm,-,N/A,,Mostly Cloudy,0,2012-12-05 12:53:00
6:40 AM,37.4,35.6,93,30.16,1.5,Calm,Calm,-,N/A,,Mostly Cloudy,0,2012-12-05 14:40:00
6:53 AM,36.0,34.0,93,30.17,2.0,SSW,5.8,-,N/A,,Scattered Clouds,200,2012-12-05 14:53:00
7:00 AM,35.6,33.8,93,30.17,10.0,Calm,Calm,-,N/A,,Partly Cloudy,0,2012-12-05 15:00:00
7:42 AM,35.6,33.8,93,30.19,1.5,West,3.5,-,N/A,,Clear,270,2012-12-05 15:42:00
7:53 AM,36.0,35.1,97,30.19,2.5,Calm,Calm,-,N/A,,Partly Cloudy,0,2012-12-05 15:53:00
8:00 AM,35.6,33.8,93,30.20,4.0,Calm,Calm,-,N/A,,Scattered Clouds,0,2012-12-05 16:00:00
8:53 AM,39.0,37.9,96,30.21,2.5,Calm,Calm,-,N/A,,Clear,0,2012-12-05 16:53:00
9:00 AM,39.2,39.2,100,30.21,4.0,Calm,Calm,-,N/A,,Clear,0,2012-12-05 17:00:00
9:53 AM,44.1,41.0,89,30.23,10.0,Calm,Calm,-,N/A,,Clear,0,2012-12-05 17:53:00
10:53 AM,48.0,41.0,77,30.23,10.0,Calm,Calm,-,N/A,,Clear,0,2012-12-05 18:53:00
11:53 AM,50.0,39.9,68,30.24,10.0,SW,4.6,-,N/A,,Clear,230,2012-12-05 19:53:00
12:53 PM,51.1,39.0,63,30.23,10.0,SW,6.9,-,N/A,,Clear,230,2012-12-05 20:53:00
1:53 PM,51.1,37.0,59,30.22,10.0,WSW,6.9,-,N/A,,Mostly Cloudy,250,2012-12-05 21:53:00
2:53 PM,52.0,37.0,57,30.22,10.0,SSW,4.6,-,0.00,,Mostly Cloudy,200,2012-12-05 22:53:00
3:53 PM,46.9,37.9,71,30.23,10.0,SSW,6.9,-,N/A,,Partly Cloudy,200,2012-12-05 23:53:00
4:53 PM,45.0,37.0,74,30.23,10.0,Calm,Calm,-,N/A,,Clear,0,2012-12-06 00:53:00
5:53 PM,44.1,37.9,79,30.24,10.0,Calm,Calm,-,N/A,,Overcast,0,2012-12-06 01:53:00
6:53 PM,43.0,39.0,86,30.25,10.0,Calm,Calm,-,N/A,,Scattered Clouds,0,2012-12-06 02:53:00
7:53 PM,41.0,37.9,89,30.26,10.0,Calm,Calm,-,N/A,,Overcast,0,2012-12-06 03:53:00
8:53 PM,39.9,37.0,89,30.26,10.0,Calm,Calm,-,N/A,,Clear,0,2012-12-06 04:53:00
9:53 PM,37.0,35.1,93,30.27,10.0,Calm,Calm,-,N/A,,Mostly Cloudy,0,2012-12-06 05:53:00
10:53 PM,39.0,36.0,89,30.26,10.0,Calm,Calm,-,N/A,,Overcast,0,2012-12-06 06:53:00
11:53 PM,39.0,36.0,89,30.25,10.0,Calm,Calm,-,N/A,,Mostly Cloudy,0,2012-12-06 07:53:00